Hourly Data Report for October 22, 2014

All times are specified in Local Standard Time (LST). Add 1 hour to adjust for Daylight Saving Time where and when it is observed.

ST LEONARD CS
NEW BRUNSWICK

47°09'28.050" N
67°49'55.014" W
245.00 m
810I001
71019
WIY

Download Data

Hourly Data (October 2014)
Hourly Data Report for October 22, 2014
Temp Definition
°C
Dew Point Temp Definition
°C
Rel Hum Definition
%
Wind Dir Definition
10's deg

Wind Spd Definition
km/h
Visibility Definition
km
Stn Press Definition
kPa
Hmdx Definition


Wind Chill Definition


Weather Definition


TIME
00:00 1.5 -1.1 83 1 2   99.66     LegendNANA
01:00 2.1 -0.9 80 3 2   99.67     LegendNANA
02:00 1.9 -0.9 82 3 2   99.70     LegendNANA
03:00 0.6 -1.2 87 3 2   99.68     LegendNANA
04:00 -0.2 -1.5 90 3 4   99.68   -1 LegendNANA
05:00 -0.9 -1.9 93 3 3   99.75   -2 LegendNANA
06:00 -0.6 -1.7 92 3 5   99.79   -2 LegendNANA
07:00 -0.8 -1.6 94 3 4   99.87   -2 LegendNANA
08:00 0.6 -0.1 95 3 4   99.96     LegendNANA
09:00 3.9 1.4 84 3 3   100.00     LegendNANA
10:00 6.4 2.5 76 5 5   100.00     LegendNANA
11:00 7.5 2.8 72 7 6   99.99     LegendNANA
12:00 7.8 2.4 69 6 5   99.95     LegendNANA
13:00 8.6 2.3 65 4 5   99.92     LegendNANA
14:00 10.3 1.5 55 5 6   99.89     LegendNANA
15:00 10.0 1.6 56 5 6   99.82     LegendNANA
16:00 9.3 2.0 60 4 4   99.81     LegendNANA
17:00 8.5 1.9 63 6 2   99.84     LegendNANA
18:00 7.5 1.9 67 7 2   99.86     LegendNANA
19:00 6.6 1.9 72 5 2   99.83     LegendNANA
20:00 6.1 2.1 75 4 3   99.76     LegendNANA
21:00 5.7 2.0 78 2 2   99.75     LegendNANA
22:00 5.1 2.0 81 3 2   99.71     LegendNANA
23:00 4.8 2.0 82 4 2   99.70     LegendNANA

Notes on Data Quality.

Legend

  • E = Estimated
  • M = Missing
  • NA = Not Available
  • ‡ = Partner data that is not subject to review by the National Climate Archives
Date modified: